MUOS-5

Last updated on Sun Jun 21 2026 00:03:06 GMT+0000 (Coordinated Universal Time)

1 41622U 16041A 26171.39448720 -.00000149 00000+0 00000+0 0 9994 2 41622 2.1958 301.7419 0197589 260.7559 102.9111 1.00273126 37120
UTC large
Height (km)
Speed (km/s)
/
Latitude / Longitude
Inclination (degrees)
Orbital Period (minutes)
Azimuth
Elevation
Range (km)
Doppler Factor

Next 0 passes for location: London (51.5072 / 0.1276)

No passes found over London.
MUOS-5